Regional Weather Roundup
Issued by NWS Wilmington, NC

Home | Current Version | Previous Version | Text Only | Print | Product List | Glossary On
Versions: 1 2 3 4 5 6 7 8 9 10 11 12 13 14 15 16 17 18 19 20 21 22 23 24 25 26 27 28 29 30 31 32 33 34 35 36 37 38 39 40 41 42 43 44 45 46 47 48 49 50
000
ASUS42 KILM 040010
RWRILM
RWRILM
REGIONAL HOURLY WEATHER ROUNDUP
NATIONAL WEATHER SERVICE WILMINGTON NC
700 PM EST TUE MAR 03 2015

NOTE: "FAIR" INDICATES FEW OR NO CLOUDS BELOW 12,000 FEET WITH NO
SIGNIFICANT WEATHER AND/OR OBSTRUCTIONS TO VISIBILITY.

...............WFO WILMINGTON COUNTY WARNING AREA...............

......COASTAL NC AND SC COUNTIES......

CITY           SKY/WX    TMP DP  RH WIND       PRES   REMARKS
WILMINGTON     RAIN      46  45  96 N5        30.17S FOG
SOUTHPORT      CLOUDY    48  47  97 N3        30.17R FOG
N MYRTLE BEACH CLOUDY    48  46  93 N6        30.17S
MYRTLE BEACH   CLOUDY    48  45  87 N10       30.20S FOG

......INLAND NC AND SC COUNTIES.......

CITY           SKY/WX    TMP DP  RH WIND       PRES   REMARKS
LUMBERTON      CLOUDY    41  39  93 CALM      30.17F FOG
ELIZABETHTOWN  DRIZZLE   40  40  99 CALM      30.18F
WHITEVILLE     CLOUDY    42  41  95 CALM      30.17F FOG
FLORENCE       CLOUDY    41  39  93 E3        30.18S
DARLINGTON     CLOUDY    39  36  87 CALM      30.20S

....................REST OF NORTH CAROLINA......................

.........EASTERN NC.........

CITY           SKY/WX    TMP DP  RH WIND       PRES   REMARKS
CAPE HATTERAS  CLOUDY    53  48  83 S13       30.18F
JACKSONVILLE   CLOUDY    45  41  87 CALM      30.19S
MOREHEAD CITY  CLOUDY    57  54  89 S10       30.16F
KENANSVILLE    CLOUDY    40  39  99 CALM      30.19F FOG
NEW BERN       CLOUDY    46  41  82 CALM      30.18F
ELIZABETH CITY CLOUDY    43  36  76 W7        30.17S

.........CENTRAL NC.........

CITY           SKY/WX    TMP DP  RH WIND       PRES   REMARKS
RALEIGH DURHAM DRIZZLE   36  33  89 CALM      30.17F FOG
ROCKY MOUNT    CLOUDY    38  37  97 CALM      30.16F FOG
ROANOKE RAPIDS NOT AVBL
FAYETTEVILLE   CLOUDY    38  37  97 CALM      30.17S FOG
HOFFMAN        CLOUDY    39  38  97 CALM      30.21S

.........WESTERN NC.........

CITY           SKY/WX    TMP DP  RH WIND       PRES   REMARKS
CHARLOTTE      CLOUDY    41  38  89 S3        30.16S FOG
GREENSBORO     DRZL/FOG  37  36  96 S6        30.13F VSB 1   WCI  32
HICKORY        NOT AVBL
BOONE          NOT AVBL
ASHEVILLE      NOT AVBL

.....................REST OF SOUTH CAROLINA.....................

.........EASTERN SC.........

CITY           SKY/WX    TMP DP  RH WIND       PRES   REMARKS
CHARLESTON     MOCLDY    60  52  74 E5        30.16S
BEAUFORT MCAS  PTCLDY    59  55  87 E3        30.15S
HILTON HEAD    CLOUDY    54  52  94 CALM      30.17R

.........CENTRAL SC.........

CITY           SKY/WX    TMP DP  RH WIND       PRES   REMARKS
COLUMBIA       CLOUDY    45  43  93 E5        30.17S FOG
ORANGEBURG     CLOUDY    46  44  93 NE6       30.17R FOG
SUMTER SHAW    CLOUDY    41  41 100 NE5       30.16S

.........WESTERN SC.........

CITY           SKY/WX    TMP DP  RH WIND       PRES   REMARKS
GREENVILLE     NOT AVBL
ROCK HILL      CLOUDY    41  40  96 SE3       30.16S FOG
ANDERSON       CLOUDY    45  44  97 CALM      30.16R FOG
CLEMSON        NOT AVBL
GREENWOOD      CLOUDY    45  45 100 E3        30.17R FOG


...................COASTAL AND OFFSHORE REPORTS..................

................LOCAL PIERS AND NC RESERVE................


STATION/POSITION TIME  SKY/WX   TEMP    WIND        PRES    VSBY
                                AIR SEA DIR/SP/G
                 (UTC)          (F)     (DEG/KT/KT) (MB)    (MI)
JOHNY MRCER PIER 0000            47 48  330/  5/  6 1020.6S
NC RESRV MASNBRO 2300            47        CALM     1021.0S
OCEAN CREST PIER 0000            48 47  320/  8/ 10 1020.6R
SPRINGMAID  PIER 0000            47 45  300/  8/ 10 1021.8S


................COASTAL AND OFFSHORE BUOYS................


STATION/POSITION TIME  SKY/WX   TEMP    WIND        PRES    VSBY
                                AIR SEA DIR/SP/G
                 (UTC)          (F)     (DEG/KT/KT) (MB)    (MI)
DIMNDSHOAL 41025 NOT AVBL
CAPE LOOKOUT     2300            56     150/ 14/ 14 1021.3F
ONSLOW BAY 41036 NOT AVBL
5 WRITEBCH 41038 NOT AVBL
MASONBORO  41110 0000               46                N/A
WVE H/P(F/S)=  4/ 5 WND WVE H/P(F/S)=  3/ 5

WILM HARBR 41108 0000               48                N/A
WVE H/P(F/S)=  3/ 6 WND WVE H/P(F/S)=  3/ 6

27WRITEBCH 41037 NOT AVBL
FRYING PAN 41013 0000            66 61  190/ 12/ 16 1021.4R
WVE H/P(F/S)=  6/ 6 WND WVE H/P(F/S)=  5/ 5 SWL H/P/D(F/S/D)=  3/100/ 6

SUNST NRSH 41024 2300            48                   N/A
CAPRS NRSH 41029 NOT AVBL
EDISTO     41004 0000            61 68  360/  6/  8 1021.0R
WVE H/P(F/S)=  5/ 8 WND WVE H/P(F/S)=  2/ 4 SWL H/P/D(F/S/D)=  5/ 8



..........OFFSHORE BUOYS BEYOND 100 NM OFFSHORE...........
.....IN A TRIANGLE---HAT TO BERMUDA TO BAHAMAS TO HAT.....


STATION/POSITION TIME  SKY/WX   TEMP    WIND        PRES    VSBY
                                AIR SEA DIR/SP/G
                 (UTC)          (F)     (DEG/KT/KT) (MB)    (MI)
150E HAT   41001 NOT AVBL
W BERMUDA  41048 NOT AVBL
ATLANTIC S 41049 NOT AVBL
E BAHAMAS  41046 NOT AVBL
NE BAHAMAS 41047 NOT AVBL
120E CANVRL41010 0000            73 75  130/ 10/ 12 1022.3R
WVE H/P(F/S)=  4/ 9 WND WVE H/P(F/S)=  2/ 3 SWL H/P/D(F/S/D)=  3/100/ 9


END



USA.gov is the U.S. government's official web portal to all federal, state and local government web resources and services.